sat.trackr.live / text

‹ back to catalog

TIANHUI 4A

NORAD 50572 · 2021-134A

PAYLOAD ACTIVE UNKNOWN

§ Identity

Operator
Country
PRC
Launch date
2021-12-29
Launch site
JSC
Launch vehicle
Mass (kg)
RCS (m²)

External: N2YO · Heavens-Above · Gunter

§ Orbital elements

Epoch: 2026-09-20T23:00:15.939648Z

Period
93.05 min
Inclination
88.9686°
Eccentricity
0.0010550
Mean motion
15.47624297 rev/d
Perigee alt
416.5 km
Apogee alt
430.9 km
Semi-major
6,801.8 km
B*
8.2612e-5
RAAN
309.0820°
Arg perigee
60.5425°
Mean anomaly
299.6887°
Rev number
26,467

§ Raw data

TIANHUI 4A1 50572U 21134A   26263.95851782  .00004302  00000+0  82612-4 0  99952 50572  88.9686 309.0820 0010550  60.5425 299.6887 15.47624297264672

JSON: /api/v1/satellites/50572 · /tle

For live sub-satellite position, see the globe view (requires WebGL).

§ Visibility from observer

Set your observer location to see the next 7 days of passes ≥ 10°. The values pass through the URL so the page stays shareable.

No JS? Fill the form by hand. The geolocation button needs JavaScript.